Amarillo, TX

3:52 PM CST on December 09, 2019 (GMT -0600)
Amarillo International

Weather History for KAMA - June, 2019

Change the Weather History Date:

Saturday, June 8, 2019

  Actual Average Record
Temperature  
Mean Temperature 75 °F 72 °F  
Max Temperature 89 °F 86 °F 106 °F (1981)
Min Temperature 61 °F 59 °F 46 °F (1915)
Degree Days  
Heating Degree Days 0 0  
Month to date heating degree days 0 5  
Since 1 June heating degree days 0 5  
Since 1 July heating degree days 4102 4176  
Cooling Degree Days 10 8  
Month to date cooling degree days 44 56  
Year to date cooling degree days 106 181  
Since 1 June cooling degree days 44 56  
Growing Degree Days 25 (Base 50)    
Moisture  
Dew Point 60 °F    
Average Humidity 60    
Maximum Humidity 90    
Minimum Humidity 29    
Precipitation  
Precipitation 0.00 in 0.12 in 2.34 in (1923)
Month to date precipitation 2.50 0.93  
Year to date precipitation 10.28 7.29  
Snow  
Snow 0.00 in 0.00 in T in (1954)
Month to date snowfall 0.0 0.0  
Since 1 June snowfall 0.0 0.0  
Since 1 July snowfall 8.1 17.8  
Snow Depth 0.00 in    
Sea Level Pressure  
Sea Level Pressure 29.77 in    
Wind  
Wind Speed 14 mph (SSE)    
Max Wind Speed 24 mph    
Max Gust Speed 30 mph    
Visibility 10 miles    
Events      
T = Trace of Precipitation, MM = Missing Value Source: NWS Daily Summary

Daily Weather History Graph

Daily Weather History Graph

Search for Another Location

Airport or City:

Astronomy

Jun. 08, 2019 Rise Set
Actual Time 6:32 AM CDT 8:59 PM CDT
Civil Twilight 6:02 AM CDT 9:29 PM CDT
Nautical Twilight 5:25 AM CDT 10:06 PM CDT
Astronomical Twilight 4:45 AM CDT 10:46 PM CDT
Moon 11:57 AM CDT (6/8) 1:07 AM CDT (6/8)
Length of Visible Light 15h 27m
Length of Day
14h 27m
Waxing Crescent, 33% of the Moon is Illuminated
Jun 8
Waxing Crescent
Jun 10
First Quarter
Jun 17
Full
Jun 25
Last Quarter
Jul 2
New

Hourly Weather History & Observations

Time (CDT) Temp. Heat Index Dew Point Humidity Pressure Visibility Wind Dir Wind Speed Gust Speed Precip Events Conditions
12:53 AM 66.9 °F - 59.0 °F 76% 29.78 in 10.0 mi SE 12.7 mph - N/A   Clear
1:53 AM 64.9 °F - 59.0 °F 81% 29.78 in 10.0 mi SSE 11.5 mph - N/A   Clear
2:53 AM 64.0 °F - 59.0 °F 84% 29.78 in 10.0 mi SSE 13.8 mph - N/A   Clear
3:53 AM 63.0 °F - 59.0 °F 87% 29.81 in 10.0 mi NNE 9.2 mph - N/A   Clear
4:53 AM 62.1 °F - 57.9 °F 86% 29.82 in 10.0 mi ESE 3.5 mph - N/A   Clear
5:53 AM 62.1 °F - 57.9 °F 86% 29.82 in 10.0 mi ESE 6.9 mph - N/A   Clear
6:53 AM 63.0 °F - 59.0 °F 87% 29.82 in 10.0 mi SSE 6.9 mph - N/A   Clear
7:53 AM 66.0 °F - 59.0 °F 78% 29.81 in 10.0 mi SSE 13.8 mph - N/A   Clear
8:53 AM 70.0 °F - 61.0 °F 73% 29.81 in 10.0 mi South 16.1 mph - N/A   Clear
9:53 AM 73.9 °F - 61.0 °F 64% 29.81 in 10.0 mi South 23.0 mph - N/A   Clear
10:53 AM 77.0 °F - 62.1 °F 60% 29.81 in 10.0 mi South 16.1 mph - N/A   Clear
11:53 AM 80.1 °F 81.2 °F 62.1 °F 54% 29.80 in 10.0 mi South 19.6 mph 26.5 mph N/A   Clear
12:53 PM 81.0 °F 81.7 °F 61.0 °F 50% 29.79 in 10.0 mi South 18.4 mph 27.6 mph N/A   Clear
1:53 PM 84.0 °F 84.9 °F 63.0 °F 49% 29.77 in 10.0 mi South 16.1 mph 25.3 mph N/A   Clear
2:53 PM 84.9 °F 85.9 °F 63.0 °F 48% 29.76 in 10.0 mi SSW 12.7 mph 23.0 mph N/A   Clear
3:53 PM 87.1 °F 87.0 °F 61.0 °F 41% 29.74 in 10.0 mi SSW 16.1 mph - N/A   Clear
4:53 PM 89.1 °F 89.0 °F 61.0 °F 39% 29.73 in 10.0 mi South 18.4 mph - N/A   Clear
5:53 PM 89.1 °F 86.7 °F 53.1 °F 29% 29.71 in 10.0 mi South 16.1 mph 20.7 mph N/A   Clear
6:53 PM 88.0 °F 86.9 °F 57.9 °F 36% 29.70 in 10.0 mi South 15.0 mph - N/A   Clear
7:53 PM 84.9 °F 85.0 °F 61.0 °F 44% 29.70 in 10.0 mi SSE 13.8 mph - N/A   Clear
8:53 PM 80.1 °F 80.9 °F 60.1 °F 50% 29.70 in 10.0 mi SSE 13.8 mph - N/A   Clear
9:53 PM 79.0 °F - 63.0 °F 58% 29.70 in 10.0 mi SSE 16.1 mph - N/A   Clear
10:53 PM 77.0 °F - 63.0 °F 62% 29.72 in 10.0 mi SSE 18.4 mph - N/A   Clear
11:53 PM 75.0 °F - 63.0 °F 66% 29.72 in 10.0 mi South 17.3 mph - N/A   Clear